Regional Weather Roundup
Issued by NWS

Home | Current Version | Previous Version | Text Only | Print | Product List | Glossary On
Versions: 1 2 3 4 5 6 7 8 9 10 11 12 13 14 15 16 17 18 19 20 21 22 23 24 25 26 27
000
ASUS45 KBOI 180110
RWRID

IDAHO REGIONAL WEATHER ROUNDUP
NATIONAL WEATHER SERVICE BOISE ID
600 PM MST FRI NOV 17 2017

NOTE: "FAIR" INDICATES FEW OR NO CLOUDS BELOW 12000 FEET
WITH NO SIGNIFICANT WEATHER AND/OR OBSTRUCTIONS TO VISIBILITY

IDZ012-014-180200-
SOUTHWEST IDAHO


CITY           SKY/WX    TMP DP  RH WIND       PRES   REMARKS
BOISE          CLEAR     40  23  50 NW7       30.19R
CALDWELL       CLEAR     41  23  48 W5        30.21R
MOUNTAIN HOME  PTCLDY    37  27  68 NW7       30.20R WCI  31
$$

IDZ016-017-180200-
SOUTHCENTRAL IDAHO


CITY           SKY/WX    TMP DP  RH WIND       PRES   REMARKS
BURLEY         PTCLDY    34  23  64 W16G25    30.13R WCI  24
JEROME         CLEAR     34  23  64 W14       30.16R WCI  25
TWIN FALLS     PTCLDY    32  25  75 SW13      30.17R WCI  22
$$

IDZ019>023-180200-
SOUTHEAST IDAHO


CITY           SKY/WX    TMP DP  RH WIND       PRES   REMARKS
IDAHO FALLS    CLEAR     33  23  66 W6        30.04R WCI  28
POCATELLO      PTCLDY    34  25  69 W15       30.07R WCI  24
REXBURG        CLEAR     33  14  45 NW10G24   30.01R WCI  25
$$

IDZ006-010-011-018-031-032-180200-
CENTRAL IDAHO MOUNTAINS


CITY           SKY/WX    TMP DP  RH WIND       PRES   REMARKS
MCCALL         CLOUDY    31  21  66 S5        30.10R WCI  26
HAILEY         PTCLDY    32  14  47 NW5       30.09R WCI  27
STANLEY          N/A     23  18  81 VRB3      30.07R
SALMON         NOT AVBL
CHALLIS        CLOUDY    33  14  45 W6        30.05R WCI  28
$$

IDZ002-004-006-007-026-180200-
NORTHERN IDAHO


CITY           SKY/WX    TMP DP  RH WIND       PRES   REMARKS
LEWISTON       CLEAR     41  29  62 S6        30.17R
LOWELL           N/A     38  37  97 CALM      30.19R
COEUR D`ALENE  CLOUDY    41  28  60 SW13      30.07R
MULLAN PASS    LGT SNOW  22  19  89 W8        29.96R FOG     WCI  12
$$




USA.gov is the U.S. government's official web portal to all federal, state and local government web resources and services.